{"data":{"norad_id":63774,"epoch":"2026-09-20T10:01:10.040448Z","epoch_age_seconds":156965,"freshness":"FRESH","line1":"1 63774U 25089Y   26263.41747732 -.00002768  00000+0 -91089-4 0  9990","line2":"2 63774  43.0015  21.5828 0001452 270.6018  89.4667 15.27582891 78782","mean_motion":15.27582891,"eccentricity":0.0001452,"inclination_deg":43.0015,"raan_deg":21.5828,"arg_perigee_deg":270.6018,"mean_anomaly_deg":89.4667,"bstar":-9.1089e-5,"rev_number":7878,"period_min":94.266570310783,"perigee_km":482.04419639508,"apogee_km":484.03668232347,"semimajor_km":6861.1774393593,"source":"CELESTRAK","updated_at":"2026-09-21T09:00:35.097481Z"}}